Regional Weather Roundup
Issued by NWS

Home | Current Version | Previous Version | Graphics & Text | Print | Product List | Glossary On
Versions: 1 2 3 4 5 6 7 8 9 10 11 12 13 14 15 16 17 18 19 20 21 22 23 24 25 26 27 28 29 30 31 32 33 34 35 36 37 38 39 40 41 42 43 44 45 46 47 48 49 50
000
ASUS43 KFSD 260010
RWRSD

WEATHER ROUNDUP FOR SOUTH DAKOTA
NATIONAL WEATHER SERVICE SIOUX FALLS SD
700 PM CDT SUN SEP 25 2016

NOTE: "FAIR" INDICATES FEW OR NO CLOUDS BELOW 12,000 FEET WITH NO
SIGNIFICANT WEATHER AND/OR OBSTRUCTIONS TO VISIBILITY.


SDZ001>005-009-010-012>017-260100-
NORTHWEST AND NORTH CENTRAL SOUTH DAKOTA

CITY           SKY/WX    TMP DP  RH WIND       PRES   REMARKS
BUFFALO          N/A     62  36  37 NW21      30.21R
FAITH            N/A     61  33  35 NW23G32   30.24R
MOBRIDGE       CLEAR     64  29  26 NW22G30   30.14R
$$

SDZ012>016-024>037-041>051-057-063-072>074-260100-
SOUTHWEST AND SOUTH CENTRAL SOUTH DAKOTA

CITY           SKY/WX    TMP DP  RH WIND       PRES   REMARKS
RAPID CTY ARPT CLEAR     62  31  31 N17       30.30S
PIERRE         CLEAR     64  27  24 NW17G29   30.18R
CUSTER         CLEAR     53  27  36 NW6       30.37R
ELLSWORTH AFB  CLEAR     62  32  32 N13       30.29S
PHILIP         CLEAR     65  29  25 NW18G32   30.26R
PINE RIDGE     CLEAR     63  27  25 N10       30.31R
WINNER         FAIR      65  27  23 NW21G31   30.23R
$$

SDZ004>011-016>023-039-040-260100-
NORTHEAST SOUTH DAKOTA

CITY           SKY/WX    TMP DP  RH WIND       PRES   REMARKS
ABERDEEN       CLEAR     62  33  33 NW18G29   30.10R
WATERTOWN      CLEAR     60  37  42 NW20G29   30.07R
BROOKINGS      CLEAR     58  39  49 NW13      30.09R
SISSETON         N/A     60  36  40 NW17      30.01R
$$

SDZ017-020-022-023-036>040-048>070-260100-
SOUTHEAST SOUTH DAKOTA

CITY           SKY/WX    TMP DP  RH WIND       PRES   REMARKS
SIOUX FALLS    PTCLDY    62  41  46 NW12      30.11R
HURON          CLEAR     63  32  31 NW17G32   30.12R
CHAMBERLAIN    CLEAR     65  31  27 NW14G26   30.20R
MITCHELL       CLEAR     65  31  28 NW15G25   30.15R
YANKTON        CLEAR     63  34  34 NW18G25   30.14R
$$

ABBREVIATIONS USED IN REMARKS
   TC - TEMPERATURE IN CELSIUS
  WCI - WIND CHILL INDEX
   HX - HEAT INDEX
  VSB - VISIBILITY




USA.gov is the U.S. government's official web portal to all federal, state and local government web resources and services.